User: anonymous   Login
Location: Guferjoch
(46.7462°N, 8.4506°E)
Time: 07:50:00
(UTC+00:00)
Language:

CZ-2D R/B - Orbit

View from above orbital plane
View from above orbital plane
View from above satellite
View from above satellite

Ground track
Ground track

The orbit data is extracted from the following two-line orbital elements,

1 37932U 11068C   21128.84056101 -.00000007  00000-0  16790-4 0  9994
2 37932  98.6885  65.5989 0036037 242.6041 183.2117 14.22070001491295
Epoch (UTC): 08 May 2021 20:10:24
Eccentricity: 0.0036037
inclination: 98.6885°
perigee height: 792 km
apogee height: 844 km
right ascension of ascending node: 65.5989°
argument of perigee: 242.6041°
revolutions per day: 14.22070001
mean anomaly at epoch: 183.2117°
orbit number at epoch: 49129

The dashed part of the orbit path shows where the satellite is in the earth's shadow,  

DLR